Location: Guferjoch
(46.7462°N, 8.4506°E)
Time: 00:18:00
(UTC+00:00)

Cosmos 1703 Rocket - Pass Details

Date: 14 July 2020
Orbit: 605 x 633 km, 82.5° (Epoch: 03 August)

Event Time Altitude Azimuth Distance (km) Brightness Sun altitude
Rises 00:29:49 0° 352° (N) 2,933 8.2 -20.4°
Reaches altitude 10° 00:32:05 10° 355° (N) 2,018 7.2 -20.3°
Maximum altitude 00:36:32 69° 79° (E) 673 3.7 -20.1°
Enters shadow 00:38:05 39° 151° (SSE) 941 4.1 -20.0°
